When you browse on this site, cookies collect data to enhance your experience and personalize the content and advertising you see.
Visit our Privacy Policy to learn more. By continuing to use the site, you agree to this use of cookies and data.
  • In Denmark
  • List of Countries
  • For 7 days
  • Water Temperature
  • Weather Map
  • Weather Widgets
  • user-avatar
    Login

    Hourly Weather Chasovnya

    Today, 5 June, Friday

    Time Temperature Precipitation Wind Pressure Humidity
    00:00 +8°C° 0 mm 4 mps 735 mmHg 94%
    01:00 +8°C° 0 mm 4 mps 735 mmHg 94%
    02:00 +9°C° 0 mm 3 mps 735 mmHg 95%
    03:00 +9°C° 0 mm 3 mps 735 mmHg 94%
    04:00 +10°C° 0 mm 4 mps 735 mmHg 93%
    05:00 +10°C° 0 mm 4 mps 735 mmHg 92%
    06:00 +12°C° 0.1 mm 5 mps 735 mmHg 88%
    07:00 +13°C° 0.1 mm 5 mps 735 mmHg 85%
    08:00 +15°C° 0.1 mm 6 mps 735 mmHg 81%
    09:00 +15°C° 1.2 mm 7 mps 735 mmHg 81%
    10:00 +16°C° 1.2 mm 7 mps 735 mmHg 82%
    11:00 +16°C° 1.2 mm 8 mps 735 mmHg 82%
    12:00 +15°C° 2 mm 7 mps 735 mmHg 86%
    13:00 +12°C° 2 mm 7 mps 735 mmHg 90%
    14:00 +11°C° 2 mm 6 mps 735 mmHg 93%
    15:00 +13°C° 0.5 mm 6 mps 735 mmHg 91%
    16:00 +14°C° 0.5 mm 5 mps 735 mmHg 88%
    17:00 +15°C° 0.5 mm 5 mps 735 mmHg 86%
    18:00 +14°C° 0.8 mm 4 mps 735 mmHg 89%
    19:00 +13°C° 0.8 mm 4 mps 735 mmHg 91%
    20:00 +12°C° 0.8 mm 3 mps 735 mmHg 94%
    21:00 +11°C° 0 mm 3 mps 735 mmHg 95%
    22:00 +11°C° 0 mm 3 mps 736 mmHg 96%
    23:00 +11°C° 0 mm 3 mps 736 mmHg 97%

    Tomorrow, 6 June, Saturday

    Time Temperature Precipitation Wind Pressure Humidity
    00:00 +10°C° 0 mm 2 mps 736 mmHg 97%
    01:00 +10°C° 0 mm 2 mps 736 mmHg 97%
    02:00 +10°C° 0 mm 2 mps 737 mmHg 97%
    03:00 +12°C° 0 mm 2 mps 737 mmHg 97%
    04:00 +13°C° 0 mm 2 mps 737 mmHg 97%
    05:00 +13°C° 0 mm 2 mps 737 mmHg 97%
    06:00 +15°C° 0 mm 2 mps 737 mmHg 94%
    07:00 +17°C° 0 mm 2 mps 738 mmHg 91%
    08:00 +18°C° 0 mm 3 mps 738 mmHg 88%
    09:00 +20°C° 0.1 mm 3 mps 738 mmHg 84%
    10:00 +21°C° 0.1 mm 3 mps 738 mmHg 80%
    11:00 +22°C° 0.1 mm 3 mps 738 mmHg 76%
    12:00 +23°C° 0.3 mm 4 mps 738 mmHg 75%
    13:00 +23°C° 0.3 mm 4 mps 738 mmHg 75%
    14:00 +25°C° 0.3 mm 4 mps 738 mmHg 74%
    15:00 +23°C° 0.7 mm 4 mps 738 mmHg 78%
    16:00 +24°C° 0.7 mm 3 mps 738 mmHg 81%
    17:00 +22°C° 0.7 mm 3 mps 738 mmHg 85%
    18:00 +21°C° 0.2 mm 3 mps 738 mmHg 87%
    19:00 +20°C° 0.2 mm 3 mps 739 mmHg 90%
    20:00 +19°C° 0.2 mm 3 mps 739 mmHg 92%
    21:00 +18°C° 0 mm 3 mps 739 mmHg 93%
    22:00 +18°C° 0 mm 3 mps 739 mmHg 93%
    23:00 +17°C° 0 mm 2 mps 739 mmHg 94%

    Day after tomorrow, 7 June, Sunday

    Time Temperature Precipitation Wind Pressure Humidity
    00:00 +17°C° 0 mm 2 mps 740 mmHg 94%
    01:00 +17°C° 0 mm 2 mps 740 mmHg 94%
    02:00 +17°C° 0 mm 2 mps 740 mmHg 94%
    03:00 +17°C° 0 mm 2 mps 740 mmHg 94%
    04:00 +19°C° 0 mm 1 mps 741 mmHg 95%
    05:00 +19°C° 0 mm 1 mps 741 mmHg 95%
    06:00 +20°C° 0 mm 1 mps 741 mmHg 91%
    07:00 +21°C° 0 mm 1 mps 741 mmHg 87%
    08:00 +23°C° 0 mm 1 mps 742 mmHg 83%
    09:00 +24°C° 1.4 mm 2 mps 742 mmHg 79%
    10:00 +25°C° 1.4 mm 2 mps 742 mmHg 75%
    11:00 +26°C° 1.4 mm 2 mps 742 mmHg 72%
    12:00 +26°C° 1.8 mm 2 mps 742 mmHg 70%
    13:00 +26°C° 1.8 mm 1 mps 742 mmHg 69%
    14:00 +27°C° 1.8 mm 1 mps 742 mmHg 67%
    15:00 +26°C° 1 mm 1 mps 741 mmHg 70%
    16:00 +26°C° 1 mm 1 mps 741 mmHg 73%
    17:00 +26°C° 1 mm 1 mps 741 mmHg 77%
    18:00 +24°C° 0.1 mm 1 mps 741 mmHg 81%
    19:00 +23°C° 0.1 mm 1 mps 741 mmHg 85%
    20:00 +21°C° 0.1 mm 1 mps 741 mmHg 89%
    21:00 +21°C° 0 mm 1 mps 741 mmHg 90%
    22:00 +19°C° 0 mm 2 mps 742 mmHg 91%
    23:00 +18°C° 0 mm 2 mps 742 mmHg 92%

    8 June, Monday

    Time Temperature Precipitation Wind Pressure Humidity
    00:00 +18°C° 0 mm 2 mps 742 mmHg 93%
    01:00 +18°C° 0 mm 2 mps 742 mmHg 93%
    02:00 +17°C° 0 mm 2 mps 742 mmHg 94%
    03:00 +18°C° 0 mm 2 mps 742 mmHg 93%
    04:00 +19°C° 0 mm 1 mps 742 mmHg 93%
    05:00 +20°C° 0 mm 1 mps 742 mmHg 93%
    06:00 +21°C° 0 mm 1 mps 742 mmHg 89%
    07:00 +22°C° 0 mm 1 mps 742 mmHg 85%
    08:00 +24°C° 0 mm 1 mps 742 mmHg 81%
    09:00 +25°C° 1.1 mm 1 mps 742 mmHg 77%
    10:00 +26°C° 1.1 mm 1 mps 742 mmHg 73%
    11:00 +27°C° 1.1 mm 1 mps 742 mmHg 69%
    12:00 +27°C° 0.4 mm 2 mps 742 mmHg 68%
    13:00 +27°C° 0.4 mm 2 mps 742 mmHg 68%
    14:00 +27°C° 0.4 mm 3 mps 742 mmHg 67%
    15:00 +27°C° 0.6 mm 3 mps 741 mmHg 72%
    16:00 +26°C° 0.6 mm 3 mps 741 mmHg 76%
    17:00 +25°C° 0.6 mm 4 mps 741 mmHg 81%
    18:00 +23°C° 0.5 mm 4 mps 741 mmHg 85%
    19:00 +22°C° 0.5 mm 4 mps 741 mmHg 88%
    20:00 +20°C° 0.5 mm 4 mps 741 mmHg 92%
    21:00 +19°C° 0 mm 3 mps 742 mmHg 92%
    22:00 +19°C° 0 mm 3 mps 742 mmHg 93%
    23:00 +18°C° 0 mm 3 mps 742 mmHg 93%

    9 June, Tuesday

    Time Temperature Precipitation Wind Pressure Humidity
    00:00 +17°C° 0 mm 3 mps 742 mmHg 94%
    01:00 +17°C° 0 mm 3 mps 742 mmHg 94%
    02:00 +17°C° 0 mm 3 mps 742 mmHg 95%
    03:00 +17°C° 0 mm 3 mps 742 mmHg 95%
    04:00 +17°C° 0 mm 3 mps 742 mmHg 94%
    05:00 +18°C° 0 mm 3 mps 743 mmHg 94%
    06:00 +19°C° 0 mm 3 mps 743 mmHg 90%
    07:00 +20°C° 0 mm 4 mps 743 mmHg 87%
    08:00 +21°C° 0 mm 4 mps 743 mmHg 83%
    09:00 +22°C° 0 mm 4 mps 743 mmHg 80%
    10:00 +23°C° 0 mm 5 mps 743 mmHg 76%
    11:00 +25°C° 0 mm 5 mps 743 mmHg 73%
    12:00 +25°C° 0.1 mm 5 mps 743 mmHg 73%
    13:00 +25°C° 0.1 mm 5 mps 743 mmHg 72%
    14:00 +25°C° 0.1 mm 5 mps 743 mmHg 72%
    15:00 +25°C° 0.3 mm 4 mps 742 mmHg 75%
    16:00 +23°C° 0.3 mm 4 mps 742 mmHg 78%
    17:00 +23°C° 0.3 mm 4 mps 742 mmHg 81%
    18:00 +21°C° 0.1 mm 4 mps 742 mmHg 84%
    19:00 +20°C° 0.1 mm 3 mps 742 mmHg 87%
    20:00 +18°C° 0.1 mm 3 mps 742 mmHg 91%
    21:00 +18°C° 0 mm 3 mps 742 mmHg 92%
    22:00 +17°C° 0 mm 3 mps 742 mmHg 93%
    23:00 +16°C° 0 mm 3 mps 742 mmHg 95%

    10 June, Wednesday

    Time Temperature Precipitation Wind Pressure Humidity
    00:00 +16°C° 0 mm 3 mps 742 mmHg 95%
    01:00 +16°C° 0 mm 3 mps 742 mmHg 95%
    02:00 +14°C° 0 mm 3 mps 742 mmHg 96%
    03:00 +15°C° 0 mm 4 mps 742 mmHg 95%
    04:00 +15°C° 0 mm 4 mps 742 mmHg 95%
    05:00 +15°C° 0 mm 4 mps 742 mmHg 95%
    06:00 +18°C° 0 mm 4 mps 742 mmHg 92%
    07:00 +19°C° 0 mm 4 mps 742 mmHg 90%
    08:00 +20°C° 0 mm 4 mps 742 mmHg 87%
    09:00 +21°C° 0 mm 4 mps 742 mmHg 82%
    10:00 +23°C° 0 mm 4 mps 742 mmHg 77%
    11:00 +25°C° 0 mm 5 mps 742 mmHg 72%
    12:00 +25°C° 0 mm 5 mps 742 mmHg 71%
    13:00 +25°C° 0 mm 5 mps 742 mmHg 71%
    14:00 +25°C° 0 mm 5 mps 741 mmHg 71%
    15:00 +25°C° 0.1 mm 4 mps 741 mmHg 74%
    16:00 +23°C° 0.1 mm 4 mps 741 mmHg 77%
    17:00 +24°C° 0.1 mm 3 mps 741 mmHg 80%
    18:00 +22°C° 0.3 mm 3 mps 741 mmHg 84%
    19:00 +20°C° 0.3 mm 2 mps 741 mmHg 87%
    20:00 +20°C° 0.3 mm 1 mps 740 mmHg 91%
    21:00 +20°C° 0.2 mm 1 mps 740 mmHg 91%
    22:00 +19°C° 0.2 mm 1 mps 740 mmHg 92%
    23:00 +19°C° 0.2 mm 1 mps 740 mmHg 93%
    Show more